Mazatlan Airport, Mexico

8:38 PM MDT on June 22, 2017 (GMT -0600)
Gen Rafael Buelna International

Weather History for MMMZ - November, 2013

Change the Weather History Date:

Monday, November 25, 2013

  Actual Average Record
Temperature  
Mean Temperature 74 °F -  
Max Temperature 84 °F 82 °F 91 °F (1997)
Min Temperature 62 °F 58 °F 55 °F (2000)
Cooling Degree Days 9    
Growing Degree Days 24 (Base 50)    
Moisture  
Dew Point 60 °F    
Average Humidity 64    
Maximum Humidity 88    
Minimum Humidity 43    
Precipitation  
Precipitation 0.00 in - - ()
Sea Level Pressure  
Sea Level Pressure 29.91 in    
Wind  
Wind Speed 7 mph ()    
Max Wind Speed 16 mph    
Max Gust Speed -    
Visibility 11.7 miles    
Events      
Averages and records for this station are not official NWS values.
T = Trace of Precipitation, MM = Missing Value Source: Averaged Metar Reports

Daily Weather History Graph

Daily Weather History Graph

Search for Another Location

Airport or City:

Trip Planner

Search our weather history database for the weather conditions in past years. The results will help you decide how hot, cold, wet, or windy it might be!

Date:

Astronomy

Nov. 25, 2013 Rise Set
Actual Time 6:25 AM MST 5:18 PM MST
Civil Twilight 6:01 AM MST 5:42 PM MST
Nautical Twilight 5:33 AM MST 6:10 PM MST
Astronomical Twilight 5:06 AM MST 6:37 PM MST
Moon No Moon Rise 12:10 PM MST (11/25)
Length of Visible Light 11h 41m
Length of Day
10h 52m
Waning Gibbous, 50% of the Moon is Illuminated
Nov 25
Waning Gibbous
Nov 25
Last Quarter
Dec 2
New
Dec 9
First Quarter
Dec 17
Full

Hourly Weather History & Observations

Time (MST) Temp. Heat Index Dew Point Humidity Pressure Visibility Wind Dir Wind Speed Gust Speed Precip Events Conditions
12:46 AM 69.8 °F - 62.6 °F 78% 29.71 in 10.0 mi WNW 6.9 mph - N/A   Mostly Cloudy
1:42 AM 66.2 °F - 62.6 °F 88% 29.92 in 10.0 mi NNE 5.8 mph - N/A   Mostly Cloudy
2:00 AM 75 °F - 64 °F 62% 29.92 in - NW 4.5 mph - -  
2:42 AM 68.0 °F - 62.6 °F 83% 29.90 in 10.0 mi WNW 5.8 mph - N/A   Mostly Cloudy
3:43 AM 66.2 °F - 62.6 °F 88% 29.90 in 10.0 mi SSW 6.9 mph - N/A   Mostly Cloudy
4:45 AM 66.2 °F - 60.8 °F 83% 29.90 in 10.0 mi North 8.1 mph - N/A   Mostly Cloudy
5:00 AM 74 °F - 65 °F 67% 29.92 in - NW 4.5 mph - -  
5:43 AM 68.0 °F - 62.6 °F 83% 29.91 in 10.0 mi North 5.8 mph - N/A   Mostly Cloudy
6:43 AM 68.0 °F - 62.6 °F 83% 29.92 in 10.0 mi Calm Calm - N/A   Mostly Cloudy
7:44 AM 69.8 °F - 64.4 °F 83% 29.94 in 12.0 mi Calm Calm - N/A   Scattered Clouds
8:00 AM 75 °F - 65 °F 64% 29.97 in - NW 4.5 mph - -  
8:46 AM 75.2 °F - 62.6 °F 65% 29.77 in 12.0 mi West 12.7 mph - N/A   Mostly Cloudy
9:43 AM 75.2 °F - 60.8 °F 61% 29.98 in 12.0 mi West 10.4 mph - N/A   Mostly Cloudy
10:43 AM 78.8 °F - 62.6 °F 57% 29.96 in 12.0 mi North 9.2 mph - N/A   Mostly Cloudy
11:41 AM 82.4 °F 83.4 °F 62.6 °F 51% 29.95 in 14.0 mi West 13.8 mph - N/A   Mostly Cloudy
12:41 PM 82.4 °F 82.9 °F 60.8 °F 48% 29.91 in 15.0 mi WNW 13.8 mph - N/A   Mostly Cloudy
1:43 PM 80.6 °F 81.8 °F 62.6 °F 54% 29.90 in 15.0 mi West 13.8 mph - N/A   Scattered Clouds
2:00 PM 84 °F - 65 °F 43% 29.93 in - WNW 11.2 mph - -  
2:41 PM 80.6 °F 81.5 °F 60.8 °F 51% 29.89 in 15.0 mi West 12.7 mph - N/A   Mostly Cloudy
3:44 PM 80.6 °F 81.5 °F 60.8 °F 51% 29.88 in 15.0 mi West 16.1 mph - N/A   Mostly Cloudy
4:46 PM 77.0 °F - 59.0 °F 54% 29.91 in 15.0 mi West 12.7 mph - N/A   Scattered Clouds
5:40 PM 73.4 °F - 57.2 °F 57% 29.91 in 13.0 mi West 13.8 mph - N/A   Scattered Clouds
6:43 PM 69.8 °F - 55.4 °F 60% 29.92 in 10.0 mi WNW 9.2 mph - N/A   Scattered Clouds
7:48 PM 68.0 °F - 53.6 °F 60% 29.93 in 10.0 mi NW 8.1 mph - N/A   Scattered Clouds
8:00 PM 73 °F - 60 °F 55% 29.96 in - NW 8.9 mph - -  
8:48 PM 66.2 °F - 53.6 °F 64% 29.95 in 10.0 mi WNW 9.2 mph - N/A   Clear
9:49 PM 66.2 °F - 51.8 °F 60% 29.95 in 10.0 mi NW 9.2 mph - N/A   Clear
10:40 PM 64.4 °F - 48.2 °F 56% 29.96 in 10.0 mi WNW 9.2 mph - N/A   Clear
11:43 PM 62.6 °F - 48.2 °F 59% 29.95 in 10.0 mi WNW 9.2 mph - N/A   Clear